This is the latest recevied weather packets stored in our database for station/object KC0RPY. If no packets are shown the sender has not sent any weather packets the latest 10 day(s).
| Time | Temp. | Humidity | Pressure | Rain* | Wind** | Luminosity | Snow |
|---|---|---|---|---|---|---|---|
| 1777772053 | 14.44° C | 43% | 1019.5 hPa | 0 mm | - | 0 W/m² | - |
| 1777771750 | 15° C | 42% | 1019.5 hPa | 0 mm | - | 0 W/m² | - |
| 1777771448 | 15° C | 41% | 1019.1 hPa | 0 mm | - | 0 W/m² | - |
| 1777771144 | 15° C | 41% | 1019.1 hPa | 0 mm | - | 0 W/m² | - |
| 1777770841 | 15° C | 40% | 1019.1 hPa | 0 mm | - | 2 W/m² | - |
| 1777770538 | 15.56° C | 40% | 1019.5 hPa | 0 mm | - | 5 W/m² | - |
| 1777770234 | 15.56° C | 38% | 1019.5 hPa | 0 mm | - | 7 W/m² | - |
| 1777769931 | 15.56° C | 38% | 1019.1 hPa | 0 mm | - | 11 W/m² | - |
| 1777769629 | 16.11° C | 37% | 1019.5 hPa | 0 mm | - | 14 W/m² | - |
| 1777769325 | 16.11° C | 36% | 1019.5 hPa | 0 mm | - | 18 W/m² | - |
| 1777769023 | 16.11° C | 36% | 1019.5 hPa | 0 mm | - | 22 W/m² | - |
| 1777768720 | 16.67° C | 36% | 1019.5 hPa | 0 mm | - | 25 W/m² | - |
| 1777768416 | 16.67° C | 34% | 1019.5 hPa | 0 mm | - | 35 W/m² | - |
| 1777768113 | 16.67° C | 33% | 1019.5 hPa | 0 mm | - | 44 W/m² | - |
| 1777767805 | 17.22° C | 33% | 1019.5 hPa | 0 mm | - | 60 W/m² | - |
| 1777767501 | 17.22° C | 33% | 1019.5 hPa | 0 mm | - | 78 W/m² | - |
| 1777767197 | 17.22° C | 34% | 1019.5 hPa | 0 mm | - | 97 W/m² | - |
| 1777766895 | 16.67° C | 33% | 1019.5 hPa | 0 mm | - | 111 W/m² | - |
| 1777766593 | 16.67° C | 34% | 1019.5 hPa | 0 mm | - | 127 W/m² | - |
| 1777766289 | 17.22° C | 32% | 1019.5 hPa | 0 mm | - | 146 W/m² | - |
| 1777765987 | 17.22° C | 34% | 1019.5 hPa | 0 mm | - | 167 W/m² | - |
| 1777765683 | 17.22° C | 33% | 1019.5 hPa | 0 mm | - | 180 W/m² | - |
| 1777765380 | 17.22° C | 34% | 1019.5 hPa | 0 mm | - | 196 W/m² | - |
| 1777765076 | 17.22° C | 33% | 1019.5 hPa | 0 mm | - | 219 W/m² | - |
| 1777764773 | 17.22° C | 35% | 1019.5 hPa | 0 mm | - | 233 W/m² | - |
* Rain latest hour (hover to see other rain measurements)
** Current wind speed in m/s (hover to see current wind gust speed)